Regional Weather Roundup
Issued by NWS Charleston, SC

Current Version | Previous Version | Graphics & Text | Print | Product List | Glossary On
Versions: 1 2 3 4 5 6 7 8 9 10 11 12 13 14 15 16 17 18 19 20 21 22 23 24 25 26 27 28 29 30 31 32 33 34 35 36 37 38 39 40 41 42 43 44 45 46 47 48 49 50
000 ASUS42 KCHS 152125 RWRCHS REGIONAL WEATHER ROUNDUP NATIONAL WEATHER SERVICE CHARLESTON SC 500 PM EDT MON SEP 15 2014 NOTE: "FAIR" INDICATES FEW OR NO CLOUDS BELOW 12,000 FEET WITH NO SIGNIFICANT WEATHER AND/OR OBSTRUCTIONS TO VISIBILITY. NOT ALL STATIONS ARE QUALITY CONTROLLED BY THE NATIONAL WEATHER SERVICE. USE DATA WITH CAUTION...ESPECIALLY DEWPOINT OBSERVATIONS. SCZ027-030-031-034>040-042>050-152200- ...SOUTH CAROLINA... CITY SKY/WX TMP DP RH WIND PRES REMARKS N CHARLESTON TSTM 75 72 88 E9 30.12R FOG WATERFRONT PRK N/A 79 N/A N/A E13 N/A FORT JOHNSON NOT AVBL MOUNT PLEASANT TSTM 77 75 94 E3 30.11S JOHNS ISLAND HVY RAIN 79 79 100 CALM 30.12R VSB 1/2 PINOPOLIS N/A 82 73 74 N7 30.03F MONCKS CORNER N/A 82 75 78 N5 30.11S THUNDER SUMMERVILLE TSTM 81 77 89 SE5 30.11R BEAUFORT MCAS PTSUNNY 83 72 69 CALM 30.10F BEAUFORT ARPT MOCLDY 82 75 78 CALM 30.09F HILTON HEAD IS PTSUNNY 81 73 78 CALM 30.12F GEORGETOWN NOT AVBL WALTERBORO MOCLDY 82 72 69 NW5 30.11S ORANGEBURG LGT RAIN 77 71 82 N6 30.12F BARNWELL MOCLDY 79 73 83 CALM 30.12F AIKEN CLOUDY 73 73 100 E5 30.16F MANNING MOCLDY 81 75 83 NE5 30.11F KINGSTREE NOT AVBL COLUMBIA CLOUDY 75 69 81 E5 30.12F SUMTER CLOUDY 77 68 73 VRB1 30.11F FLORENCE CLOUDY 78 70 76 SE9 30.13F MYRTLE BEACH CLOUDY 75 70 83 E7 30.14S N MYRTLE BEACH PTSUNNY 77 69 76 NE8 30.13F $$ GAZ063-065-086>088-099>101-113>116-118-119-134-136>141-150-152200- ...GEORGIA... CITY SKY/WX TMP DP RH WIND PRES REMARKS SAVANNAH ARPT LGT RAIN 76 72 87 S6 30.12F HUNTER AAF LGT RAIN 73 73 100 W3 30.10S FORT STEWART LGT RAIN 77 75 94 NE8 30.12R STATESBORO NOT AVBL SYLVANIA MOCLDY 82 76 81 CALM 30.12S HX 90 CLAXTON NOT AVBL THOMSON CLOUDY 76 75 97 CALM 30.17S AUGUSTA-BUSH CLOUDY 75 71 87 E3 30.12S AUGUSTA-DANIEL CLOUDY 76 71 85 E5 30.13F SWAINSBORO CLOUDY 84 77 79 NE3 30.11S HX 94 VIDALIA FAIR 86 73 66 E7 30.10R HX 93 ALMA CLOUDY 79 72 79 SW13 30.09R THUNDER WAYCROSS FAIR 90 78 67 CALM 30.07S HX 104 JESUP N/A 82 77 83 SE9 30.11R HX 91 BRUNSWICK FAIR 82 73 74 N5 30.11R SAINT SIMONS FAIR 83 73 72 E8 30.09R $$ SCZ027-028-034-036>038-045-046-048>050-GAZ119-141-152200- ...LAKE AND SUPPLEMENTAL COASTAL OBSERVATIONS... STATION/POSITION TIME TEMP WIND PRES WAVE SWELL AIR SEA DIR/SP/G HT/PER HT/PER/DIR (UTC) (F) (DEG/KT/KT) (MB) (FT/S) (FT/S/D) UPR LAKE MARION NOT AVBL WINYAH BAY 2100 78 50/ 9 1020.0S LAKE MURRAY 2100 74 160/ 2/ 4 1019.6F ACE BASIN NERRS 2100 83 CALM 1020.0S FORT PULASKI 2100 80 350/ 2/ 2 1020.1R SAPELO ISLAND 2100 82 80/ 4 1020.0S $$ ANZ835-935-AMZ111-154-330-350-352-354-374-450-454-472-152200- ...C-MAN AND BUOY OBSERVATIONS... STATION/POSITION TIME TEMP WIND PRES WAVE SWELL AIR SEA DIR/SP/G HT/PER HT/PER/DIR (UTC) (F) (DEG/KT/KT) (MB) (FT/S) (FT/S/D) FOLLY BEACH CMAN 2100 80 90/ 9/ 10 1019.9F BUOY 41004 2100 81 84 50/ 8/ 10 1019.1F 2/ 5 2/ 5 BUOY 41008 2100 82 85 90/ 6/ 8 1019.0F 2/ 6 2/ 70/ 6 5E ST. MARYS GA 2100 85 N/A 2/ 6 FRYING PAN BUOY NOT AVBL BUOY 41025 2100 74 350/ 12/ 14 1020.2S 4/ 8 3/ 30/ 8 CAPE LOOKOUT NC 2100 75 50/ 7/ 9 1020.4F BUOY 41002 2013 79 83 280/ 10/ 12 1019.2 3/ 5 3/270/ 5 BUOY 41010 2100 83 86 160/ 2/ 4 1019.7F 2/ 8 2/110/ 8 BUOY 41012 NOT AVBL ST AUGUSTINE FL 2100 82 120/ 10/ 11 1019.4F CAPERS NEARSHORE 2000 81 100/ 14/ 17 N/A FRIPP NEARSHORE NOT AVBL $$

USA.gov is the U.S. government's official web portal to all federal, state and local government web resources and services.